FW6767 Weather Reports


time (UTC)temp
C
wind
direction
speed
KPH
gust
KPH
rain 1hr
cm
rain 24hr
cm
rain mn
cm
humidity
%
barometer
mb
20260505183057 27 294 1.6 4.8 0.00 0.00 0.00 44 1016.2
20260505181557 27 111 1.6 6.4 0.00 0.00 0.00 38 1016.1
20260505180112 27 150 1.6 6.4 0.00 0.00 0.00 38 1016.5
20260505174604 27 130 0.0 6.4 0.00 0.00 0.00 40 1016.8
20260505173058 27 355 1.6 16.1 0.00 0.00 0.00 42 1017.0
20260505171559 26 0 3.2 9.7 0.00 0.00 0.00 43 1017.4
20260505170106 25 138 3.2 9.7 0.00 0.00 0.00 42 1017.2
20260505164605 26 235 1.6 8.0 0.00 0.00 0.00 44 1017.2
20260505163059 25 252 1.6 6.4 0.00 0.00 0.00 48 1017.1
20260505161623 25 115 1.6 4.8 0.00 0.00 0.00 50 1017.4
20260505160105 23 110 1.6 6.4 0.00 0.00 0.00 57 1017.4
20260505153059 22 195 0.0 6.4 0.00 0.00 0.00 58 1017.8
20260505151601 22 72 0.0 3.2 0.00 0.00 0.00 56 1017.9
20260505140109 19 0 0.0 3.2 0.00 0.00 0.00 68 1017.7
20260505124559 13 0 0.0 0.0 0.00 0.00 0.00 90 1017.3
20260505123103 11 0 0.0 0.0 0.00 0.00 0.00 96 1017.5
20260505121557 9 0 0.0 0.0 0.00 0.00 0.00 94 1017.2
20260505120058 8 0 0.0 0.0 0.00 0.00 0.00 93 1017.0
20260505114555 8 0 0.0 0.0 0.00 0.00 0.00 94 1016.8
20260505113110 7 0 0.0 0.0 0.00 0.00 0.00 94 1016.6
20260505111556 7 0 0.0 0.0 0.00 0.00 0.00 93 1016.6
20260505101556 7 0 0.0 0.0 0.00 0.00 0.00 93 1016.3
20260505100057 7 0 0.0 0.0 0.00 0.00 0.00 92 1016.3
20260505094555 7 0 0.0 0.0 0.00 0.00 0.00 92 1016.3
20260505093058 8 0 0.0 0.0 0.00 0.00 0.00 93 1016.2
20260505091615 8 0 0.0 0.0 0.00 0.00 0.00 92 1016.2
20260505090057 8 0 0.0 0.0 0.00 0.00 0.00 92 1016.0
20260505084555 8 0 0.0 0.0 0.00 0.00 0.00 92 1016.1
20260505083100 8 0 0.0 0.0 0.00 0.00 0.00 92 1016.1
20260505081602 8 0 0.0 0.0 0.00 0.00 0.00 91 1015.9
20260505080111 8 0 0.0 0.0 0.00 0.00 0.00 90 1015.9
20260505074559 8 0 0.0 0.0 0.00 0.00 0.00 90 1015.5
20260505073058 9 0 0.0 1.6 0.00 0.00 0.00 90 1015.5
20260505071604 9 0 0.0 1.6 0.00 0.00 0.00 89 1015.4
20260505070059 10 0 0.0 0.0 0.00 0.00 0.00 89 1015.6
20260505064557 10 0 0.0 1.6 0.00 0.00 0.00 89 1015.7
20260505063137 10 285 0.0 1.6 0.00 0.00 0.00 88 1015.9
20260505061639 10 0 0.0 1.6 0.00 0.00 0.00 88 1015.9
20260505054559 11 0 0.0 1.6 0.00 0.00 0.00 88 1015.7
20260505053058 11 0 0.0 0.0 0.00 0.00 0.00 87 1015.9
20260505051613 11 0 0.0 0.0 0.00 0.00 0.00 87 1015.9
20260505041556 12 0 0.0 0.0 0.00 0.00 0.00 86 1015.9
20260505040107 12 0 0.0 0.0 0.00 0.00 0.00 85 1015.9
20260505034555 12 0 0.0 0.0 0.00 0.00 0.00 85 1016.1
20260505033056 13 0 0.0 1.6 0.00 0.00 0.00 84 1016.2
20260505031559 13 0 0.0 1.6 0.00 0.00 0.00 84 1016.2
20260505030057 13 0 0.0 0.0 0.00 0.00 0.00 82 1016.2
20260505024555 14 0 0.0 0.0 0.00 0.00 0.00 81 1016.2
20260505023056 14 0 0.0 0.0 0.00 0.00 0.00 80 1016.2
20260505021555 15 0 0.0 0.0 0.00 0.00 0.00 80 1015.8
20260505020104 15 0 0.0 0.0 0.00 0.00 0.00 79 1015.7
20260505014557 15 0 0.0 0.0 0.00 0.00 0.00 77 1015.7
20260505013106 16 0 0.0 1.6 0.00 0.00 0.00 76 1015.7
20260505011555 16 0 0.0 0.0 0.00 0.00 0.00 75 1015.4
20260505010111 17 0 0.0 0.0 0.00 0.00 0.00 72 1015.3
20260505004554 18 0 0.0 0.0 0.00 0.00 0.00 70 1015.3
20260505003059 19 0 0.0 0.0 0.00 0.00 0.00 67 1015.0
20260505001603 20 0 0.0 0.0 0.00 0.00 0.00 64 1015.1
20260504234600 21 0 0.0 0.0 0.00 0.00 0.00 58 1014.9
20260504233109 22 0 0.0 0.0 0.00 0.00 0.00 51 1014.8
20260504231603 22 0 0.0 0.0 0.00 0.00 0.00 48 1014.7
20260504230059 22 0 0.0 4.8 0.00 0.00 0.00 45 1014.6
20260504224556 23 0 0.0 3.2 0.00 0.00 0.00 45 1014.6
20260504223057 23 0 0.0 4.8 0.00 0.00 0.00 45 1014.7
20260504221557 23 0 0.0 4.8 0.00 0.00 0.00 47 1014.7
20260504220059 23 269 0.0 1.6 0.00 0.00 0.00 48 1014.7
20260504214556 24 0 0.0 1.6 0.00 0.00 0.00 47 1014.7
20260504213055 24 0 0.0 4.8 0.00 0.00 0.00 45 1014.6
20260504211556 24 0 0.0 4.8 0.00 0.00 0.00 43 1014.7
20260504210107 24 265 0.0 6.4 0.00 0.00 0.00 44 1014.9
20260504204602 24 286 0.0 9.7 0.00 0.00 0.00 39 1014.9
20260504203108 25 0 0.0 4.8 0.00 0.00 0.00 44 1015.2
20260504201600 25 0 0.0 4.8 0.00 0.00 0.00 40 1015.1
20260504200059 25 0 1.6 4.8 0.00 0.00 0.00 38 1015.1
20260504194605 26 236 1.6 6.4 0.00 0.00 0.00 35 1015.4
20260504193102 26 144 1.6 6.4 0.00 0.00 0.00 35 1015.4
20260504191555 26 30 0.0 9.7 0.00 0.00 0.00 38 1015.7
20260504190128 26 184 0.0 4.8 0.00 0.00 0.00 39 1016.1
20260504184557 26 253 1.6 8.0 0.00 0.00 0.00 37 1016.3